Theta_e
294 294 296 297 298 301 305 306 306 307 310 316 318 324 324 324 324 325 325 325 326 325 326 326 328 330 329 326 329 330 332 333 333 333 332 332 332 330
294 294 294 294 295 297 297 299 301 301 304 308 312 315 318 321 323 324 324 323 323 324 323 324 325 326 326 328 330 330 330 330 331 332 333 333 333 332
294 294 294 294 294 294 294 295 295 296 297 301 303 308 314 316 318 321 322 322 323 323 322 322 322 323 327 326 326 329 329 329 331 332 333 333 333 333
294 294 293 293 294 294 294 294 294 294 294 295 297 299 305 310 313 315 318 319 321 322 324 326 323 323 325 327 327 326 329 329 329 331 332 333 333 332
293 293 293 292 292 292 293 293 293 293 293 293 294 295 297 300 306 311 313 318 320 322 323 324 326 327 327 327 328 328 327 327 328 329 330 332 333 333
292 291 291 291 291 291 291 291 292 293 293 293 293 294 294 295 296 299 305 310 315 316 319 319 321 323 326 327 326 326 327 329 328 327 329 330 330 331
291 290 289 289 289 289 289 290 290 290 291 292 292 293 293 294 294 294 295 298 301 306 312 314 316 318 319 321 322 321 321 323 325 327 329 329 329 329
291 290 289 288 288 288 288 289 289 289 289 290 290 291 292 292 292 292 293 294 296 297 299 307 309 312 315 316 318 319 320 320 321 321 323 326 327 328
291 289 289 288 288 288 288 288 287 287 288 288 289 290 290 291 291 292 293 293 294 294 295 297 297 300 307 310 312 314 317 319 320 320 320 320 321 321
291 290 289 289 288 288 288 287 287 287 288 288 288 289 289 289 290 291 291 293 293 293 293 294 295 296 298 301 306 309 312 316 319 320 321 320 321 321
291 290 290 289 288 288 287 287 287 287 288 287 287 288 289 289 289 290 290 290 291 292 293 293 295 295 295 296 298 304 308 314 316 317 319 319 320 322
291 291 290 289 288 288 287 287 287 287 287 287 287 287 288 288 288 289 289 289 290 289 292 291 291 291 294 295 297 304 307 308 313 313 314 315 317 319
292 292 291 290 288 288 287 287 287 286 286 287 287 287 287 286 286 286 288 288 289 289 289 289 289 289 291 291 294 295 296 298 302 305 307 309 311 311
293 292 292 290 288 288 288 287 287 286 286 286 286 287 287 286 286 286 287 287 288 287 287 288 288 289 289 290 291 293 294 296 296 298 302 305 306 309
293 292 291 289 288 289 288 288 287 287 286 285 286 286 286 286 286 286 286 286 287 287 287 287 287 288 288 288 289 290 292 294 295 296 299 300 302 304
291 290 289 288 289 289 289 289 288 287 286 285 285 286 286 286 286 286 286 286 286 286 286 286 287 287 287 288 288 288 291 292 293 293 295 297 298 301
290 289 289 289 289 289 289 288 288 287 286 285 285 285 286 286 286 286 286 286 286 286 286 286 286 287 287 287 287 287 290 291 292 291 292 294 296 298
289 289 288 289 289 288 287 286 287 286 284 284 285 285 285 285 285 286 286 286 286 286 286 285 286 286 286 286 287 288 289 289 289 291 291 291 292 293
288 288 288 288 288 286 287 287 285 284 283 284 285 285 285 285 285 286 286 286 286 286 286 286 286 286 286 286 286 286 287 287 287 289 290 290 289 290
286 286 286 286 285 285 284 284 283 283 284 284 284 283 284 284 284 285 285 285 285 286 286 286 286 286 286 286 286 286 286 286 286 286 288 289 289 289
284 284 283 283 282 282 282 282 282 282 282 283 282 283 283 283 283 284 284 284 285 285 286 286 286 286 285 285 285 285 285 286 286 286 286 286 286 290
282 282 282 281 281 281 281 281 281 281 282 282 282 282 283 283 283 283 283 284 285 285 285 286 286 285 285 285 285 285 285 286 286 286 286 285 285 286
281 281 281 281 281 281 281 281 281 281 282 282 282 282 282 282 282 283 283 285 285 284 284 285 285 285 285 285 286 285 285 286 285 285 286 286 286 287
Wind_Speed
18 17 17 17 17 15 16 17 15 15 22 18 17 12 17 21 20 19 23 24 25 22 21 24 29 32 31 33 33 34 36 36 33 32 32 32 32 31
19 18 17 17 17 16 18 15 14 14 14 22 24 21 23 21 22 30 31 32 33 35 34 31 26 28 31 29 33 34 33 33 34 35 34 34 34 34
22 22 20 19 18 17 18 18 17 16 19 22 22 20 23 22 26 24 29 32 34 34 35 36 34 32 31 32 31 32 34 34 34 34 36 37 36 36
26 25 25 24 22 21 20 19 18 17 20 22 21 20 19 22 24 22 19 19 22 22 25 24 30 32 35 31 32 34 37 38 37 37 36 37 38 37
29 29 28 27 26 25 24 23 22 20 19 20 22 20 20 20 20 25 21 18 14 20 24 28 26 26 31 33 32 33 33 38 41 41 40 38 37 37
30 29 28 27 27 28 28 27 26 24 22 19 20 20 19 20 21 22 23 22 21 22 23 23 31 36 34 31 31 31 33 33 38 42 44 43 42 41
28 27 25 24 25 27 28 27 24 24 23 21 19 20 22 22 22 23 25 22 20 19 22 18 19 23 25 33 38 33 32 31 30 32 40 44 46 43
27 24 23 21 22 22 24 22 22 21 19 19 19 20 20 21 22 22 24 25 28 19 25 22 26 23 22 25 24 29 35 35 30 33 35 33 34 37
26 23 22 20 20 18 18 18 19 17 16 17 18 17 19 20 22 22 22 21 23 25 27 29 26 26 24 24 22 22 25 31 32 33 33 31 29 31
24 23 22 19 17 18 18 16 13 13 15 16 16 16 17 17 17 18 20 22 26 27 25 31 28 27 24 22 20 17 19 24 30 32 34 38 32 34
24 23 22 20 18 18 16 14 13 13 16 17 17 19 18 12 13 17 18 21 23 28 13 14 24 32 30 25 19 20 20 15 21 29 33 31 35 35
25 24 23 21 19 18 16 15 18 17 18 18 17 18 17 16 13 12 16 18 20 23 15 26 30 26 30 28 15 13 14 20 23 20 20 18 18 23
26 25 23 22 21 19 17 17 18 21 21 20 19 18 17 20 18 16 14 15 18 21 25 23 28 30 18 32 37 32 27 23 22 25 29 31 27 29
27 26 25 24 23 21 20 19 18 21 22 22 22 20 20 19 19 19 17 17 18 22 23 22 25 26 26 29 33 36 36 29 27 25 26 25 27 30
27 26 26 27 25 24 23 21 21 22 24 25 24 23 21 20 19 20 23 21 20 21 22 20 21 22 22 27 33 39 40 36 28 21 17 25 28 29
21 25 25 24 23 24 24 23 23 24 25 26 25 25 24 22 22 21 23 24 27 27 22 21 20 22 25 27 28 35 34 31 31 25 26 29 27 24
23 22 23 23 23 23 24 25 26 26 27 27 26 26 27 26 26 24 24 25 26 28 28 26 22 22 24 26 31 31 29 26 23 22 26 31 30 28
20 22 24 22 22 25 28 27 27 28 28 27 26 26 28 29 29 27 26 25 27 27 29 27 24 26 28 29 23 19 18 23 27 29 31 32 32 29
17 18 22 25 27 28 27 29 31 30 29 27 26 28 29 29 27 27 26 26 27 28 26 26 24 25 30 31 26 23 20 20 27 31 28 30 32 31
20 23 27 28 27 28 30 31 31 29 27 28 31 30 27 27 27 27 27 28 28 27 28 27 27 25 27 31 34 32 28 25 25 28 30 32 32 32
22 24 25 27 27 26 27 28 29 30 29 30 30 30 30 29 30 30 32 31 27 29 32 28 27 27 27 30 33 35 34 28 26 25 28 36 35 36
24 26 25 25 25 25 27 27 28 29 30 29 30 29 28 27 30 33 33 31 33 33 35 34 30 30 29 31 35 36 35 30 29 25 28 30 28 27
24 25 26 27 28 28 27 27 27 28 28 29 28 28 30 31 31 32 32 34 39 36 34 34 33 29 30 32 33 36 33 32 34 31 32 33 29 27
Wind_Direction
342 340 337 335 332 331 313 311 324 317 310 304 316 272 256 260 259 259 257 260 263 265 263 262 259 254 259 254 256 260 258 257 260 259 258 260 261 259
333 334 333 331 331 328 331 331 319 313 296 294 300 299 286 276 251 251 258 261 261 262 271 263 264 264 262 256 255 254 255 256 257 256 255 254 257 260
319 319 321 322 321 324 325 326 327 325 314 311 304 297 291 291 286 279 278 276 271 271 273 268 264 262 268 263 256 253 249 251 252 253 254 255 253 253
311 311 311 310 310 310 310 314 318 323 324 324 318 316 308 293 294 299 282 282 269 255 255 260 261 259 258 267 262 255 252 251 253 254 256 258 258 256
307 305 305 303 302 302 301 303 305 310 316 321 321 324 321 311 297 277 287 270 254 250 251 252 253 253 253 254 261 261 257 253 250 250 254 254 254 256
304 303 301 300 299 297 296 297 299 301 305 309 311 316 321 321 322 318 295 282 275 274 267 272 262 257 256 254 256 259 259 255 254 252 250 250 250 249
302 301 300 297 296 295 294 296 298 299 300 302 305 308 314 318 325 328 320 317 310 295 283 276 271 270 266 258 260 263 263 264 262 258 251 247 247 249
298 298 300 298 295 295 296 301 304 305 302 301 302 304 307 312 318 321 326 325 324 317 308 284 287 282 274 272 274 264 258 258 264 263 261 256 257 255
291 292 297 300 298 294 297 306 310 309 305 303 302 300 301 307 312 315 321 319 314 317 318 309 313 303 285 281 277 281 270 261 259 262 261 258 253 256
284 285 293 296 297 293 295 301 306 309 311 313 309 308 305 305 307 310 312 314 308 310 315 311 311 306 301 296 293 289 282 261 255 253 260 257 255 254
277 280 288 292 294 295 294 295 298 310 312 323 323 316 316 314 305 302 310 316 318 312 325 309 309 309 306 307 303 280 266 274 264 260 253 265 261 257
272 275 282 289 293 295 292 297 304 312 315 322 322 324 320 315 314 309 309 314 320 322 289 310 312 324 317 310 299 290 282 270 264 275 266 258 258 249
268 272 280 286 288 287 289 295 304 309 310 309 310 313 317 319 316 313 305 303 305 296 302 314 308 310 303 299 300 300 298 289 282 276 280 283 277 284
264 270 279 283 284 280 282 293 299 304 306 303 302 305 308 311 314 311 307 300 297 296 303 305 296 298 300 300 300 297 298 299 298 297 288 279 274 274
261 267 275 278 274 272 277 284 294 295 301 299 300 302 305 308 309 309 307 304 296 295 296 298 295 295 289 289 293 294 299 304 304 296 285 282 280 279
266 275 275 271 266 273 279 283 283 293 294 297 296 296 297 298 298 302 303 307 306 303 300 303 300 296 293 292 296 294 294 299 299 296 287 281 281 283
262 263 267 269 274 276 279 282 282 287 288 292 292 291 290 290 293 296 298 302 300 303 303 303 300 296 293 294 293 292 299 293 295 299 291 288 286 284
265 268 273 273 274 281 286 281 280 285 286 288 285 285 288 291 293 292 290 291 293 297 297 301 300 300 299 300 295 296 291 289 288 289 291 295 294 292
276 280 277 280 283 284 279 282 286 287 287 283 282 283 284 288 289 291 289 289 288 288 300 304 297 294 297 295 298 294 289 289 296 296 290 288 294 294
280 278 278 279 279 279 281 283 284 284 281 283 285 286 283 286 286 285 285 284 283 284 288 296 294 291 287 292 296 294 290 293 303 299 300 301 293 295
284 282 282 283 283 282 282 283 284 284 283 284 285 284 284 287 285 284 286 280 279 281 281 281 294 299 292 292 286 287 293 297 301 293 305 309 305 302
290 291 290 289 287 285 285 286 286 284 283 284 284 283 283 282 281 283 285 278 276 288 281 278 291 294 285 281 283 290 295 298 302 291 289 300 295 289
294 293 292 291 291 289 289 287 285 283 282 281 282 283 282 281 282 284 281 268 279 285 278 280 285 287 288 286 278 292 289 291 302 294 291 304 300 297